Weather in Dolinskoye

Ukraine / Odesa District     47°31′44″N   29°55′39″E
temp.,
°C
wind,
m/s
gust,
m/s
humid.,
%
clouds,
%
prec.,
mm/h
press.,
hPa
HPBL,
m
22 april, thu
thu2200:00+10ssw2363100 0.0 101746
03:00+10ssw367193 0.0 1018141
06:00+7ssw34825 0.0 101850
09:00+12s46645 0.0 1019459
12:00+17s664620 0.0 10182018
15:00+17s4645100 0.0 10181934
18:00+16sse675292 0.0 10161193
21:00+13sse7126931 0.0 1017369
23 april, fri
fri2300:00+11s6137194 0.0 1017299
03:00+9s512835 0.4 1016264
06:00+8sw499146 0.0 1016179
09:00+10nw4581100 0.0 1017403
12:00+13nnw4367100 0.0 10171104
15:00+10n7777100 0.4 1017761
18:00+6nnw5889100 2.3 1019753
21:00+5nw22925 3.8 102023
24 april, sat
sat2400:00+4wsw37911 0.0 1020144
03:00+4wnw47830 0.0 1020122
06:00+3w39840 0.0 1020181
09:00+7wnw9116723 0.0 10211012
12:00+9nw8114475 0.0 10221843
15:00+10wnw8113372 0.0 10222555
18:00+10nw610405 0.0 10222423
21:00+5nw22540 0.0 102316
25 april, sun
sun2500:00+4w22595 0.0 102411
03:00+3sw226049 0.0 102410
06:00+3ssw226020 0.0 102210
09:00+9ssw47445 0.0 1022524
12:00+13ssw784497 0.0 10201781
15:00+12sw7962100 0.6 10191370
18:00+13nw565072 1.2 10181318
21:00+9n2472100 1.3 1019112
26 april, mon
mon2600:00+6nnw6873100 0.9 1021789
03:00+4wnw36796 0.9 1021133
06:00+2nw37770 0.0 1021129
09:00+7nw56520 0.0 1021860
12:00+10wnw683996 0.0 10212352
15:00+12wnw7937100 0.0 10192626
18:00+11nw684296 0.0 10192176
21:00+7nnw3752100 0.0 1020147